Tracking 29932 objects as of 3-Dec-2024
HD Live streaming from Space Station
objects crossing your sky now

STARLINK-30412

Track STARLINK-30412 now!
10-day predictions
STARLINK-30412 is classified as:


NORAD ID: 57854
Int'l Code: 2023-141Q
Perigee: 468.6 km
Apogee: 472.4 km
Inclination: 53.2 °
Period: 93.9 minutes
Semi major axis: 6841 km
RCS: Unknown
Launch date: September 12, 2023
Source: United States (US)
Launch site: AIR FORCE WESTERN TEST RANGE (AFWTR)
Your satellite tracking list
Your tracking list is empty




NASA's NSSDC Master Catalog

Two Line Element Set (TLE):
1 57854U 23141Q   24338.19311175  .00005462  00000-0  17389-3 0  9996
2 57854  53.1565 267.5310 0002777  72.8127 287.3179 15.34178288 69672
Source of the keplerian elements: AFSPC